Temperature
16 16 16 16 16 16 16 16 16 16 16 16 16 16 16 16 16 16 15 15 15 15 15 15 15 15 15 16 16 16 16 16 15 15 15 15 15 15 15 14 15 15 15
16 16 16 16 16 16 16 16 16 16 16 16 15 15 15 15 15 15 15 15 15 15 15 15 15 15 15 15 15 15 15 15 15 15 15 15 15 15 14 14 14 14 15
16 16 16 16 16 16 16 16 16 16 15 15 15 15 15 15 15 15 15 15 15 15 15 15 15 15 15 15 15 15 15 15 15 14 14 15 14 14 14 14 14 14 14
15 15 15 16 16 16 16 16 15 15 15 15 15 15 15 15 15 15 15 15 15 15 15 15 15 15 15 15 15 15 15 14 14 14 14 14 14 14 14 14 14 14 14
15 15 15 15 15 15 15 15 15 15 15 15 15 15 15 15 15 15 14 14 14 15 15 15 15 15 15 15 15 15 14 14 14 14 14 14 14 14 14 14 14 14 14
15 15 15 15 15 15 15 15 15 15 15 15 15 15 15 14 14 14 14 14 14 14 14 15 15 15 15 15 15 14 14 14 14 14 13 14 14 14 14 14 14 14 14
14 14 14 14 15 15 15 15 15 15 15 15 15 14 14 14 14 14 14 14 14 14 14 14 14 14 14 14 14 14 14 14 13 13 13 13 13 14 14 14 14 13 13
14 14 14 14 14 14 14 14 14 14 14 14 14 14 14 14 14 14 14 14 14 14 14 14 14 14 14 14 14 14 14 13 13 13 13 13 13 13 13 13 13 13 13
14 14 14 14 14 14 14 14 14 14 14 14 14 14 14 14 14 14 14 13 13 14 14 14 14 14 14 14 14 14 13 13 13 13 13 13 13 13 13 13 13 13 13
14 14 13 14 14 14 14 14 14 13 14 13 13 13 13 13 13 13 13 13 13 13 13 14 14 14 14 14 13 13 13 13 13 13 13 13 13 13 13 13 13 13 12
13 13 13 13 13 13 13 13 13 13 13 13 13 13 13 13 13 13 13 13 13 13 13 13 13 13 13 13 13 13 13 13 13 13 13 12 12 12 12 12 12 12 12
13 13 13 13 13 13 13 13 13 13 12 12 12 13 12 12 12 13 13 13 13 13 13 13 13 13 13 13 13 12 12 12 12 12 12 12 12 12 12 12 12 12 12
12 12 12 13 13 13 12 12 12 12 12 12 12 12 12 12 12 12 12 12 12 12 12 12 12 12 12 12 12 12 12 12 12 12 12 12 12 12 12 12 11 11 11
12 12 12 12 12 12 12 12 12 12 12 12 12 12 12 12 11 11 12 12 12 12 12 12 12 12 12 12 12 12 12 12 12 12 12 12 11 11 11 11 11 11 11
12 12 12 12 12 12 12 12 12 12 12 12 11 11 11 11 11 11 11 11 11 11 11 11 11 11 11 11 11 11 11 11 11 11 11 11 11 11 11 11 11 11 11
12 12 12 12 12 12 12 12 12 11 11 11 11 11 11 11 11 11 11 11 11 11 11 11 11 11 11 11 11 11 11 11 11 11 11 11 11 11 11 11 11 11 10
11 11 11 11 11 11 11 11 11 11 11 11 11 11 11 11 11 11 10 10 10 10 10 10 10 10 10 10 10 10 10 10 10 10 10 10 10 11 10 10 10 10 10
11 11 11 11 11 11 11 11 11 11 11 11 11 11 11 10 10 10 10 10 10 10 10 10 10 10 10 10 10 10 10 10 10 10 10 10 10 10 10 10 10 10 10
10 11 11 11 11 10 10 10 10 10 10 10 10 10 10 10 10 10 10 10 10 10 10 9 9 9 9 9 9 9 9 9 9 9 9 9 9 10 10 10 10 9 9
10 10 10 10 10 10 10 10 10 10 10 10 10 10 10 10 10 10 10 9 9 9 9 9 9 9 9 9 9 9 9 9 9 9 9 9 9 9 9 9 9 9 9
10 10 10 10 10 10 10 9 9 9 9 9 10 9 9 9 9 9 9 9 9 9 9 9 9 9 8 8 8 8 8 8 8 8 8 8 8 8 8 8 8 8 8
9 9 9 9 10 10 10 9 9 9 9 9 9 9 9 9 9 9 9 9 9 9 9 9 8 8 8 8 8 8 7 7 8 8 8 8 8 8 8 8 8 8 8
9 9 9 9 9 9 9 9 9 9 8 8 8 8 9 9 9 9 9 9 9 8 8 8 8 8 8 8 8 8 7 7 7 7 7 7 7 7 7 7 7 7 7
8 8 8 8 9 9 9 9 8 8 8 8 8 8 8 8 8 8 8 8 8 8 8 8 8 8 8 7 7 7 7 7 7 7 7 7 7 7 7 7 7 7 7
8 8 8 8 8 8 8 8 8 8 8 8 8 8 8 8 8 8 8 8 8 8 8 8 7 7 7 7 7 7 7 7 7 7 6 6 6 7 6 6 6 6 6
7 7 7 7 7 7 8 8 8 8 8 7 7 7 7 7 7 7 7 7 7 7 7 7 7 7 7 7 7 7 7 7 7 7 6 6 6 6 6 6 6 6 6
Wind_Speed
9 13 15 13 13 12 11 11 11 11 11 11 11 10 10 10 10 10 10 10 10 11 11 11 12 12 12 13 13 13 13 13 13 13 13 13 13 13 12 12 13 13 14
11 14 15 14 13 12 12 11 11 11 10 10 10 10 10 10 10 10 10 10 10 10 11 11 11 11 11 12 12 12 12 11 11 11 12 13 13 13 14 15 14 12 14
11 14 15 15 14 12 12 11 11 11 10 10 10 10 10 10 10 10 9 10 10 10 10 10 10 10 10 11 11 10 9 8 7 7 9 10 12 13 14 14 14 13 14
10 13 14 14 13 13 12 11 11 11 11 10 11 10 10 10 10 10 9 10 10 10 10 10 10 10 10 10 10 9 7 5 4 4 6 10 11 12 13 13 14 13 13
9 12 14 14 13 12 12 11 11 11 10 10 10 10 10 10 10 10 10 9 10 10 10 10 10 10 10 10 9 8 6 4 5 6 9 12 12 12 13 13 13 13 13
9 12 14 14 13 12 12 11 11 10 10 10 10 10 10 10 10 9 9 9 9 9 9 9 10 10 10 9 8 6 5 4 5 6 10 12 12 13 13 13 12 12 12
9 11 14 14 13 12 11 11 11 11 10 10 10 9 10 10 9 9 9 9 9 9 10 10 10 10 10 9 7 5 5 6 5 7 10 12 12 13 13 12 12 12 12
8 10 12 14 13 12 11 11 11 11 10 10 9 9 9 10 9 9 8 8 8 9 10 10 10 10 9 8 7 6 5 6 5 7 11 12 12 12 12 12 12 11 11
8 8 9 11 12 12 11 10 10 10 10 10 9 9 9 10 9 9 8 8 8 8 9 10 10 9 8 7 6 6 6 5 6 8 10 10 11 11 11 11 10 10 10
6 7 7 8 9 10 10 10 10 10 10 10 10 9 9 10 9 9 8 8 8 8 9 9 9 9 8 6 5 4 4 4 5 9 10 10 11 10 10 10 9 10 10
5 6 6 6 7 8 8 10 10 10 10 10 9 10 9 8 8 8 8 8 8 8 8 8 9 8 7 6 4 2 3 3 7 9 9 10 10 10 9 9 9 8 9
5 5 5 5 5 6 6 8 8 8 8 8 8 8 7 7 7 7 7 7 8 8 8 8 8 7 6 4 3 2 2 4 8 9 9 10 9 9 9 9 9 8 8
5 5 5 5 5 5 4 5 5 6 6 7 7 8 7 7 7 7 7 7 7 7 7 7 6 5 4 4 3 3 4 5 7 8 8 9 9 9 8 8 8 8 8
5 5 5 5 4 4 4 4 4 4 4 4 5 6 6 4 4 5 4 5 5 5 5 4 4 4 4 4 5 5 5 6 8 9 8 9 8 8 8 8 7 7 7
5 5 5 5 5 4 4 3 4 4 4 4 5 6 5 4 3 4 4 4 4 4 4 3 3 4 3 4 5 5 5 6 8 9 8 9 9 8 7 7 6 6 6
6 6 5 5 5 4 3 3 3 4 4 5 5 5 5 5 4 3 3 3 3 4 3 3 3 3 3 4 4 5 5 6 7 9 9 8 8 8 7 6 6 5 5
5 6 6 6 5 5 4 4 4 4 5 4 5 5 5 5 5 4 3 2 3 4 3 3 3 3 3 3 3 5 5 6 6 7 8 8 8 7 7 6 6 5 5
5 6 6 6 6 5 4 4 3 4 4 4 5 6 6 6 5 4 3 2 3 4 3 2 2 2 3 3 3 2 4 5 5 6 7 7 7 6 6 6 5 4 4
6 6 6 5 6 5 5 4 4 4 4 4 5 5 6 6 6 5 4 3 3 3 2 2 2 2 3 3 3 3 2 3 3 5 5 6 6 7 6 5 5 4 3
5 5 6 6 6 5 4 4 3 3 3 3 4 4 6 6 6 5 4 4 3 2 2 2 3 3 3 3 3 3 2 2 3 3 3 5 5 6 6 5 4 4 3
5 5 6 6 6 5 4 4 4 4 3 3 3 5 5 5 5 5 4 4 3 3 3 3 3 4 3 3 3 2 2 2 2 2 2 3 3 4 5 4 4 4 3
5 5 5 6 6 6 5 4 4 4 3 3 3 4 5 5 5 5 4 4 4 3 3 3 3 2 2 3 3 2 1 1 1 0 1 1 2 3 3 3 2 3 3
5 6 6 6 6 6 6 4 4 3 3 3 3 3 4 5 5 4 4 4 4 3 3 3 3 3 3 2 2 2 3 3 1 0 1 1 1 1 1 2 1 2 3
4 4 4 5 6 6 7 6 7 6 5 4 4 3 4 4 4 5 5 4 4 4 3 4 3 3 4 3 2 1 2 2 2 1 1 1 1 1 1 1 1 0 1
4 4 4 5 5 5 6 7 7 6 4 4 5 5 4 4 4 5 5 5 4 4 4 4 3 3 3 3 2 2 1 1 1 2 2 2 1 1 1 1 2 2 2
3 3 4 5 5 5 6 6 7 7 6 6 6 6 5 4 4 4 5 5 5 4 4 4 4 4 3 3 2 2 2 2 2 2 2 2 2 2 1 1 2 3 3
Wind_Direction
114 127 137 134 131 128 125 124 122 120 118 118 117 117 115 112 108 107 105 104 101 98 96 92 90 88 87 84 81 80 77 79 81 82 81 79 77 75 73 70 74 76 75
121 129 137 134 131 128 126 124 122 120 120 119 117 117 118 117 114 113 109 106 104 101 98 95 92 91 91 91 88 84 82 83 88 91 89 82 79 77 72 69 74 78 78
120 128 135 133 131 128 126 125 124 124 123 121 120 118 116 116 115 113 111 108 106 102 99 97 95 93 92 93 91 89 86 86 84 99 103 96 88 83 80 77 76 78 78
121 128 132 132 131 130 126 125 126 127 126 125 123 120 116 113 110 107 106 107 105 102 99 98 97 94 93 95 93 91 88 78 58 72 96 100 93 90 85 80 76 77 76
115 122 127 130 129 130 128 127 126 126 126 126 123 122 119 115 111 106 101 102 105 103 101 98 98 97 94 96 95 90 82 66 57 55 80 88 90 92 87 81 77 77 75
112 116 128 132 130 128 127 128 128 127 128 127 124 124 121 118 113 109 103 99 102 104 104 102 102 101 98 97 95 86 70 66 56 62 81 88 92 92 88 84 80 77 76
111 115 129 133 131 129 128 129 130 129 129 128 127 127 123 120 118 113 108 104 104 105 107 107 105 104 100 96 92 82 68 65 59 68 79 86 94 95 89 84 81 79 77
111 116 128 136 135 132 131 130 130 130 130 129 129 129 127 123 121 116 111 110 108 109 112 108 106 105 102 98 89 77 69 66 54 80 85 88 96 96 91 87 83 80 78
113 118 127 136 138 138 136 135 135 134 133 132 131 127 124 124 122 119 116 114 115 115 117 114 112 111 110 104 94 80 69 65 40 72 87 90 97 96 93 90 86 84 81
119 122 128 134 135 136 139 141 140 139 140 138 136 131 128 128 126 126 123 121 122 119 121 121 120 117 112 110 107 94 79 59 66 74 86 96 99 96 96 93 89 85 83
127 126 126 127 128 134 141 146 144 143 146 145 142 143 138 134 128 123 126 124 128 127 126 127 127 127 124 121 127 116 88 79 86 84 89 98 101 99 98 96 91 88 86
150 139 129 130 129 132 139 140 146 147 149 149 146 148 145 132 130 130 131 137 140 140 137 137 139 142 142 145 143 136 100 91 90 89 92 101 104 103 99 99 95 91 90
156 149 137 136 131 130 127 136 141 143 150 153 158 156 142 132 132 131 134 140 144 142 140 144 148 152 144 133 125 114 87 80 92 93 98 107 110 108 104 101 97 94 91
155 158 147 139 134 131 129 132 131 124 126 129 143 148 140 131 130 132 132 139 141 136 138 152 154 144 141 135 120 112 99 88 88 93 96 109 112 112 109 101 98 99 94
162 161 152 144 144 141 132 138 129 124 129 131 140 146 137 127 131 123 119 125 129 134 144 144 138 134 128 109 106 106 100 93 97 98 99 104 109 112 112 105 99 100 97
167 161 153 149 147 146 147 147 133 127 130 127 128 139 140 128 119 122 116 112 122 128 131 129 119 121 111 103 100 100 98 99 107 116 114 109 109 114 112 107 99 99 95
165 157 159 160 154 156 153 154 137 135 134 126 130 138 136 130 127 125 127 128 128 137 135 118 113 106 102 98 95 90 91 93 98 111 119 120 114 112 116 111 104 100 99
165 160 163 167 161 162 154 152 137 133 130 130 139 145 149 145 141 129 132 141 144 142 131 123 126 115 106 101 94 80 82 87 92 104 111 120 123 120 117 116 114 108 108
169 165 162 156 160 163 155 148 139 132 127 128 136 142 151 150 150 138 136 145 148 129 127 147 123 126 121 112 109 92 72 72 82 99 107 112 119 123 120 118 120 120 116
165 163 164 161 160 163 153 146 140 134 135 123 131 140 149 154 157 145 141 149 146 138 144 142 137 124 119 122 110 89 73 65 71 81 96 107 114 123 123 124 121 120 133
162 165 167 166 166 161 163 164 162 164 162 157 140 144 145 154 159 148 149 152 153 158 160 152 141 135 129 117 102 85 46 55 77 75 88 108 109 119 126 130 131 128 127
174 177 173 172 170 169 171 170 165 157 162 162 154 144 152 156 162 156 152 161 155 155 155 151 140 140 146 134 132 131 129 13 332 84 93 115 123 116 123 133 144 152 143
176 182 184 177 172 171 166 158 154 147 146 157 164 166 162 161 165 156 155 152 155 159 165 162 161 149 166 174 148 145 154 192 178 247 221 157 151 140 125 121 157 165 150
183 180 179 176 173 174 171 171 172 175 174 174 168 169 167 157 157 159 154 154 157 159 170 175 165 158 160 178 190 162 141 138 145 173 263 236 188 178 184 150 153 190 156
174 172 172 170 175 178 179 177 177 183 176 158 160 163 167 164 165 165 157 159 164 165 170 172 164 168 167 174 176 167 124 74 119 161 208 238 267 254 224 200 200 195 203
154 161 165 166 175 179 180 180 183 185 175 166 167 169 173 174 172 168 162 164 166 166 169 173 176 173 172 170 171 162 158 163 189 169 184 200 224 243 247 235 221 203 195
Height
1508 1509 1511 1513 1515 1517 1519 1521 1523 1524 1526 1528 1529 1530 1531 1533 1534 1535 1536 1537 1538 1539 1540 1541 1542 1542 1543 1544 1545 1545 1546 1547 1547 1548 1549 1549 1550 1550 1551 1551 1552 1552 1552
1507 1509 1511 1513 1515 1517 1519 1521 1523 1525 1526 1528 1529 1531 1532 1533 1534 1535 1537 1538 1539 1540 1541 1542 1543 1543 1544 1545 1545 1546 1547 1548 1549 1549 1550 1551 1551 1552 1552 1553 1553 1553 1554
1507 1509 1511 1513 1515 1517 1519 1521 1523 1525 1527 1528 1530 1531 1532 1534 1535 1536 1537 1538 1539 1540 1541 1542 1543 1544 1545 1546 1546 1547 1548 1549 1550 1551 1551 1552 1553 1553 1553 1554 1554 1555 1555
1507 1509 1511 1513 1515 1517 1519 1521 1523 1525 1527 1528 1530 1531 1533 1534 1535 1536 1538 1539 1540 1541 1542 1543 1544 1545 1546 1546 1547 1548 1549 1551 1551 1552 1553 1553 1554 1554 1555 1555 1555 1556 1556
1507 1509 1510 1513 1515 1517 1519 1521 1523 1525 1526 1528 1530 1531 1533 1534 1535 1537 1538 1539 1540 1541 1542 1543 1544 1545 1546 1547 1548 1549 1551 1552 1552 1553 1554 1554 1555 1555 1555 1556 1556 1557 1557
1507 1508 1510 1513 1515 1517 1519 1520 1522 1524 1526 1528 1529 1531 1532 1534 1535 1537 1538 1539 1540 1541 1542 1543 1544 1546 1547 1548 1549 1550 1551 1552 1553 1554 1555 1555 1556 1556 1556 1557 1557 1557 1558
1506 1508 1510 1512 1514 1516 1518 1520 1522 1524 1525 1527 1529 1530 1532 1534 1535 1536 1538 1539 1540 1541 1543 1544 1545 1546 1547 1549 1550 1551 1552 1553 1554 1555 1555 1556 1556 1557 1557 1557 1558 1558 1558
1506 1507 1509 1511 1514 1516 1518 1519 1521 1523 1524 1526 1528 1530 1531 1533 1534 1536 1537 1539 1540 1541 1543 1544 1545 1546 1548 1549 1550 1551 1552 1553 1554 1555 1556 1556 1557 1557 1558 1558 1558 1558 1558
1506 1507 1508 1511 1513 1515 1517 1518 1520 1522 1524 1525 1527 1529 1530 1532 1534 1535 1537 1538 1540 1541 1543 1544 1545 1546 1548 1549 1550 1552 1553 1554 1554 1555 1556 1557 1557 1558 1558 1558 1559 1559 1559
1505 1506 1508 1510 1511 1513 1515 1517 1519 1521 1522 1524 1526 1528 1529 1531 1533 1534 1536 1538 1539 1541 1542 1543 1545 1546 1548 1549 1550 1551 1553 1554 1554 1555 1556 1557 1557 1558 1558 1558 1559 1559 1559
1504 1505 1507 1508 1510 1512 1514 1516 1518 1520 1521 1523 1525 1527 1528 1530 1531 1533 1535 1537 1538 1540 1542 1543 1544 1546 1547 1549 1550 1551 1552 1553 1554 1555 1556 1556 1557 1558 1558 1558 1559 1559 1559
1502 1504 1505 1507 1509 1511 1512 1514 1516 1518 1520 1522 1523 1525 1527 1529 1530 1532 1534 1536 1537 1539 1541 1542 1544 1545 1547 1548 1549 1550 1551 1552 1553 1554 1555 1556 1557 1557 1558 1558 1559 1559 1559
1500 1502 1504 1505 1507 1509 1511 1513 1514 1516 1518 1520 1522 1524 1525 1527 1529 1530 1532 1534 1536 1538 1539 1541 1543 1544 1546 1547 1548 1550 1551 1552 1552 1553 1554 1555 1556 1557 1557 1558 1558 1558 1559
1498 1500 1501 1503 1505 1507 1509 1510 1512 1514 1516 1518 1520 1522 1524 1525 1527 1529 1530 1532 1534 1536 1538 1540 1541 1543 1545 1546 1547 1549 1550 1551 1551 1552 1553 1554 1555 1556 1557 1557 1558 1558 1558
1495 1497 1499 1500 1502 1505 1507 1508 1510 1512 1514 1516 1518 1520 1522 1523 1525 1527 1529 1531 1533 1535 1537 1538 1540 1542 1544 1545 1546 1547 1548 1549 1550 1551 1552 1553 1554 1555 1555 1556 1557 1557 1557
1492 1494 1496 1498 1500 1502 1504 1506 1508 1510 1512 1514 1516 1518 1520 1521 1523 1525 1527 1529 1531 1533 1535 1537 1539 1541 1542 1544 1545 1546 1547 1548 1549 1550 1551 1552 1553 1554 1554 1555 1555 1556 1556
1489 1491 1493 1495 1497 1499 1501 1503 1505 1507 1509 1511 1513 1516 1518 1519 1521 1523 1525 1527 1529 1531 1533 1535 1537 1539 1541 1542 1543 1545 1546 1547 1548 1549 1550 1550 1551 1552 1553 1553 1554 1555 1555
1486 1488 1490 1492 1494 1496 1499 1501 1503 1505 1507 1509 1511 1513 1515 1517 1519 1521 1523 1525 1527 1529 1531 1533 1535 1537 1538 1540 1542 1543 1544 1545 1546 1547 1548 1549 1549 1550 1551 1552 1552 1553 1554
1483 1485 1487 1489 1491 1493 1496 1498 1500 1502 1504 1506 1508 1510 1512 1514 1516 1518 1520 1522 1525 1527 1529 1531 1533 1535 1536 1538 1540 1541 1542 1544 1545 1545 1546 1547 1548 1548 1549 1550 1551 1551 1552
1480 1482 1484 1486 1488 1491 1493 1495 1497 1499 1501 1503 1505 1507 1509 1511 1513 1516 1517 1520 1522 1525 1527 1529 1531 1533 1534 1536 1538 1539 1541 1542 1543 1544 1545 1545 1546 1546 1547 1548 1549 1549 1550
1476 1478 1480 1482 1484 1487 1489 1491 1493 1495 1498 1500 1502 1504 1507 1509 1511 1513 1515 1517 1519 1522 1524 1526 1528 1530 1532 1534 1535 1537 1539 1540 1541 1542 1543 1543 1544 1545 1545 1546 1546 1547 1548
1472 1474 1476 1478 1481 1483 1486 1488 1490 1492 1495 1497 1499 1501 1504 1506 1508 1510 1512 1514 1516 1519 1521 1523 1525 1527 1529 1531 1533 1534 1536 1539 1539 1540 1541 1541 1542 1543 1543 1544 1544 1545 1545
1469 1470 1472 1474 1477 1480 1482 1485 1487 1489 1492 1494 1496 1498 1500 1503 1505 1507 1509 1511 1513 1516 1518 1520 1522 1524 1526 1528 1530 1532 1533 1534 1536 1537 1538 1539 1540 1541 1541 1542 1542 1542 1543
1465 1467 1469 1470 1473 1476 1478 1481 1483 1484 1486 1489 1492 1495 1497 1499 1502 1504 1506 1508 1511 1513 1515 1517 1519 1521 1523 1525 1527 1529 1531 1531 1533 1534 1536 1536 1537 1538 1539 1539 1539 1540 1540
1462 1463 1465 1467 1469 1472 1474 1477 1479 1481 1484 1486 1489 1491 1493 1496 1498 1501 1503 1505 1507 1509 1512 1514 1516 1518 1520 1522 1524 1525 1527 1529 1530 1531 1531 1533 1534 1535 1536 1536 1537 1537 1537
1459 1460 1462 1464 1466 1468 1470 1473 1475 1478 1480 1482 1484 1487 1489 1492 1495 1497 1499 1502 1504 1506 1508 1511 1513 1515 1517 1519 1521 1522 1524 1525 1526 1528 1528 1529 1530 1531 1532 1533 1534 1534 1534